OITL

Ardabil Airport

Airport
ICAO code
OITL
IATA Code
ADU
Summary
ICAO Region
MID
ICAO Territory
Location

Gilan Deh, Ardabil

Serving
Ardabil
Elevation
4315 ft
Coordinates
38° 19' 27" N , 48° 25' 13" E
KCC
Metar
OITL 180100Z 04006KT 9000 VCFG FEW010 SCT030 FEW040CB 06/06 Q1017

Airport serving Ardabil in north-western Iran.

Climatology

Cold Semi-arid climate (Köppen climate classification BSk).

Runways

Designator Length Width Surface Rops
15/33 3299 45 PEM No/No

Airport map

Aerial View

SKYbrary Partners:

Safety knowledge contributed by: